Vorticity
nan nan nan nan nan nan nan nan nan nan nan nan nan nan nan nan nan nan nan nan nan nan nan nan nan nan nan nan nan nan nan nan nan nan nan nan nan nan nan nan nan nan nan nan nan
nan 7 7 7 7 7 7 7 8 8 9 9 11 11 10 12 13 7 14 12 6 7 4 7 8 7 5 8 6 7 7 7 9 13 7 5 5 8 17 5 2 18 17 9 nan
nan 7 7 7 7 7 7 7 7 8 9 10 13 12 11 10 11 17 21 12 6 2 4 7 8 7 6 8 7 6 4 4 6 9 9 7 5 8 13 9 11 14 3 5 nan
nan 7 7 7 7 7 7 7 7 8 9 10 13 12 11 10 3 19 22 10 7 3 4 8 8 8 7 7 5 4 8 4 4 3 8 11 4 6 4 5 14 14 6 5 nan
nan 7 7 7 7 8 7 8 8 9 10 11 12 11 9 9 8 18 14 3 6 10 7 5 5 6 7 6 8 6 8 9 8 12 10 8 4 6 6 9 15 12 6 3 nan
nan 7 7 7 7 7 7 8 8 9 10 12 13 9 6 5 15 15 8 2 4 7 9 7 7 4 5 7 7 6 6 8 19 18 7 6 7 6 10 10 11 14 6 5 nan
nan 8 8 7 8 7 8 8 9 10 11 13 12 5 6 7 10 12 4 7 8 5 6 5 7 7 7 8 10 8 8 15 17 5 5 3 4 7 8 15 10 10 7 5 nan
nan 7 7 8 8 8 9 8 11 16 17 14 9 8 5 10 10 4 4 9 10 5 8 10 4 7 7 6 10 13 11 14 9 9 4 -3 11 7 9 13 12 7 7 6 nan
nan 7 8 8 9 10 9 11 25 29 18 8 3 8 6 11 12 9 7 7 7 9 8 9 8 6 7 10 5 12 10 6 10 11 8 6 11 13 15 4 7 8 6 4 nan
nan 8 8 8 9 9 14 25 24 15 9 6 3 5 12 10 10 11 8 9 7 9 11 5 7 7 6 11 9 5 6 7 10 9 7 6 8 15 8 8 10 9 7 5 nan
nan 8 7 8 10 12 21 19 6 5 10 7 4 3 4 10 12 10 11 6 7 7 10 9 7 7 7 7 6 6 5 7 6 7 14 13 14 13 4 8 11 10 9 7 nan
nan 8 9 9 8 24 17 5 8 5 12 11 6 8 8 12 8 10 10 7 9 8 4 11 11 8 8 8 8 5 4 8 9 12 10 15 18 15 7 4 8 11 10 7 nan
nan 8 10 8 24 24 9 6 7 10 10 11 14 8 13 9 8 9 6 8 8 8 9 6 7 10 7 5 11 8 10 8 6 6 9 10 10 8 6 5 5 8 10 11 nan
nan 8 8 22 26 9 8 5 11 13 8 15 11 9 13 6 9 14 8 6 11 12 8 2 10 10 7 8 9 6 13 6 8 8 9 5 9 9 10 8 8 10 9 10 nan
nan 10 15 24 12 5 4 7 16 11 10 13 11 11 12 10 5 7 11 13 11 8 8 8 11 12 9 9 6 8 12 11 10 7 9 6 12 14 14 8 12 10 9 7 nan
nan 11 19 18 10 5 5 14 12 10 6 8 10 9 7 6 9 10 8 10 11 9 7 12 10 11 11 13 7 11 8 6 12 11 7 11 7 9 13 11 9 11 11 7 nan
nan 20 18 8 6 9 13 14 12 5 3 8 11 12 10 8 9 9 5 8 12 10 8 10 9 7 11 12 9 11 8 8 7 12 10 8 8 15 7 12 15 15 10 7 nan
nan 28 17 4 5 9 14 9 7 7 9 8 10 11 9 9 10 10 10 6 9 11 14 10 4 7 11 16 10 9 11 8 11 7 9 9 5 10 10 19 20 15 11 13 nan
nan 19 8 11 13 8 8 9 7 9 8 11 13 6 8 13 14 8 6 5 8 14 11 7 7 8 10 10 12 11 8 12 7 9 13 6 9 3 1 10 27 25 18 11 nan
nan 12 9 14 10 7 11 8 6 7 14 16 10 6 8 11 12 7 6 7 6 11 15 9 9 6 7 6 11 15 8 8 10 15 5 9 10 -0 2 5 11 20 21 14 nan
nan 12 9 12 10 9 10 5 6 7 11 10 9 11 8 12 10 9 10 9 5 8 13 10 9 11 10 4 9 12 14 14 14 8 11 7 -1 8 10 6 7 11 18 25 nan
nan 6 10 10 10 8 5 9 8 11 10 12 12 8 7 9 13 13 7 3 13 18 7 11 10 9 7 10 12 9 10 12 7 8 12 13 4 -1 9 11 7 9 13 22 nan
nan 6 9 13 8 9 10 11 5 10 14 9 8 10 10 13 10 6 6 5 13 17 14 12 10 9 6 10 7 5 11 14 10 11 8 9 3 -1 7 11 8 7 16 27 nan
nan 7 10 10 12 12 8 8 7 7 12 9 10 11 7 8 11 12 4 8 7 6 14 18 13 14 11 8 6 3 10 12 11 8 12 5 2 0 6 10 10 8 13 20 nan
nan 14 9 3 10 12 9 8 8 7 7 8 12 11 13 9 10 6 7 10 5 7 14 10 9 10 10 9 11 7 4 9 10 10 8 5 7 7 5 9 13 9 8 9 nan
nan 8 12 10 8 7 7 11 9 10 10 11 9 6 12 12 8 6 9 10 7 8 10 12 13 6 5 8 10 15 12 12 7 7 7 12 7 7 6 5 8 12 10 8 nan
nan nan nan nan nan nan nan nan nan nan nan nan nan nan nan nan nan nan nan nan nan nan nan nan nan nan nan nan nan nan nan nan nan nan nan nan nan nan nan nan nan nan nan nan nan
CAPE
0 1 3 3 2 2 2 3 4 3 3 3 4 4 4 3 1 0 0 0 0 0 0 0 0 0 0 0 17 119 176 134 114 66 21 29 249 198 230 140 95 208 6 39 44
1 2 2 2 3 3 2 2 3 3 2 3 3 4 4 5 0 0 0 0 0 0 0 0 0 0 0 0 40 159 27 185 122 7 83 87 236 39 375 143 165 9 13 35 24
2 2 3 3 3 3 4 3 2 2 2 3 1 2 1 0 0 0 0 0 0 0 0 0 0 0 0 0 14 89 95 57 123 230 9 66 178 129 196 126 135 0 14 34 31
1 3 3 5 4 3 4 3 2 1 2 2 3 0 0 0 0 0 0 0 0 0 0 0 0 0 0 0 0 1 8 65 22 348 342 205 12 71 115 491 312 0 8 8 29
2 3 4 4 4 4 3 2 2 1 1 1 0 0 0 0 0 0 0 0 0 0 0 0 0 0 0 0 0 0 0 0 0 0 534 33 11 0 18 106 182 14 17 14 19
5 5 5 5 2 2 2 1 1 1 0 0 2 0 0 0 0 0 0 0 0 0 0 0 0 0 0 0 0 0 0 0 0 358 200 78 95 21 200 356 390 94 17 24 12
8 6 5 3 3 2 1 1 1 0 0 0 0 0 0 0 0 0 0 0 0 0 0 0 0 0 0 0 0 0 0 0 443 548 350 36 6 235 268 429 434 86 10 26 17
7 6 5 3 3 2 2 1 1 0 0 0 1 0 0 0 0 0 0 0 0 0 0 0 0 0 0 0 0 0 0 0 389 322 129 157 205 304 195 232 235 94 48 14 42
10 5 3 3 4 6 4 1 0 0 0 0 0 0 0 0 0 0 0 0 0 0 0 0 0 0 0 0 0 0 0 0 0 275 305 213 206 193 514 181 210 110 77 57 30
7 7 6 5 6 5 5 0 0 0 0 0 0 0 0 0 0 0 0 0 0 0 0 0 0 0 0 0 0 0 0 0 0 220 376 357 273 317 333 329 196 103 65 44 37
7 5 6 6 5 4 1 0 0 0 0 0 0 0 0 0 0 0 0 0 0 0 0 0 0 0 0 0 0 0 0 0 0 0 0 176 281 263 282 205 262 122 68 39 38
5 5 6 5 4 2 0 0 0 0 0 0 0 0 0 0 0 0 0 0 0 0 0 0 0 0 0 0 0 0 0 0 0 0 11 223 309 191 442 252 424 273 87 46 35
5 4 5 3 0 0 0 0 0 0 0 0 0 0 0 0 0 0 0 0 0 0 0 0 0 0 0 0 0 0 0 0 0 0 156 124 310 286 229 277 356 425 289 89 10
6 6 3 2 0 0 0 0 0 0 0 0 0 0 0 0 0 0 0 0 0 0 0 0 0 0 0 0 0 0 0 0 0 0 0 28 98 105 17 85 268 492 441 244 44
6 5 1 0 0 0 0 0 0 0 0 0 0 0 0 0 0 0 0 0 0 0 0 0 0 0 0 0 0 0 0 0 0 0 0 0 0 0 4 39 268 501 479 369 222
3 2 1 0 0 0 0 0 0 0 0 0 0 0 0 0 0 0 0 0 0 0 0 0 0 0 0 0 0 0 0 0 0 0 0 0 0 0 21 89 110 425 496 443 101
0 0 0 0 0 0 0 0 0 0 0 0 0 0 0 0 0 0 0 0 0 0 0 0 0 0 0 0 0 0 0 0 0 0 0 0 0 0 4 30 46 149 393 497 170
0 0 0 0 0 0 0 0 0 0 0 0 0 0 0 0 0 0 0 0 0 0 0 0 0 0 0 0 0 0 0 0 0 0 0 0 0 0 0 0 0 33 124 304 255
0 0 0 0 0 0 0 0 0 0 0 0 0 0 0 0 0 0 0 0 0 0 0 0 0 0 0 0 0 0 0 0 0 0 0 0 0 0 0 0 0 7 33 384 353
0 0 0 0 0 0 0 0 0 0 0 0 0 0 0 0 0 0 0 0 0 0 0 0 0 0 0 0 0 0 0 0 0 0 0 0 0 0 0 0 0 0 0 84 303
0 0 0 0 0 0 0 0 0 0 0 0 0 0 0 0 0 0 0 0 0 0 0 0 0 0 0 0 0 0 0 0 0 0 0 0 0 0 0 0 0 15 0 0 123
0 0 0 0 0 0 0 0 0 0 0 0 0 0 0 0 0 0 0 0 0 0 0 0 0 0 0 0 0 0 0 0 0 0 0 0 0 0 0 0 0 11 13 0 86
0 0 0 0 0 0 0 0 0 0 0 0 0 0 0 0 0 0 0 0 0 0 0 0 0 0 0 0 0 0 0 0 0 0 0 0 0 0 0 0 0 6 45 27 67
0 0 0 0 0 0 0 0 0 0 0 0 0 0 0 0 0 0 0 0 0 0 0 0 0 0 0 0 0 0 0 0 0 0 0 0 0 0 0 0 0 0 29 65 92
0 0 0 0 0 0 0 0 0 0 0 0 0 0 0 0 0 0 0 0 0 0 0 0 0 0 0 0 0 0 0 0 0 0 0 0 0 0 0 0 0 0 10 42 1
0 0 0 0 0 0 0 0 0 0 0 0 0 0 0 0 0 0 0 0 0 0 0 0 0 0 0 0 0 0 0 0 0 0 0 0 0 0 0 0 0 0 0 0 9
0 0 0 0 0 0 0 0 0 0 0 0 0 0 0 0 0 0 0 0 0 0 0 0 0 0 0 0 0 0 0 0 0 0 0 0 0 0 0 0 0 0 0 0 0